Time,TemperatureF,DewpointF,PressureIn,WindDirection,WindDirectionDegrees,WindSpeedMPH,WindSpeedGustMPH,Humidity,HourlyPrecipIn,Conditions,Clouds,dailyrainin,SoftwareType,DateUTC
2013-07-26 00:08:00,72.7,72.0,29.97,NNE,30,0.0,0.0,98,0.00,,,0.00,weatherlink.com 1.10,2013-07-26 05:08:00,
2013-07-26 00:23:00,72.6,72.0,29.96,NNE,30,0.0,0.0,98,0.00,,,0.00,weatherlink.com 1.10,2013-07-26 05:23:00,
2013-07-26 00:38:00,72.4,72.0,29.97,NNE,30,0.0,0.0,98,0.00,,,0.00,weatherlink.com 1.10,2013-07-26 05:38:00,
2013-07-26 00:53:00,72.7,72.0,29.97,ESE,120,0.0,1.0,98,0.00,,,0.00,weatherlink.com 1.10,2013-07-26 05:53:00,
2013-07-26 01:08:00,72.6,72.0,29.97,ESE,120,0.0,0.0,98,0.00,,,0.00,weatherlink.com 1.10,2013-07-26 06:08:00,
2013-07-26 01:23:00,72.3,72.0,29.96,ESE,118,0.0,0.0,98,0.00,,,0.00,weatherlink.com 1.10,2013-07-26 06:23:00,
2013-07-26 01:38:00,72.1,72.0,29.96,ESE,118,0.0,0.0,98,0.00,,,0.00,weatherlink.com 1.10,2013-07-26 06:38:00,
2013-07-26 01:53:00,71.9,71.0,29.96,ESE,118,0.0,0.0,98,0.00,,,0.00,weatherlink.com 1.10,2013-07-26 06:53:00,
2013-07-26 02:08:00,71.7,71.0,29.96,ESE,120,0.0,0.0,98,0.00,,,0.00,weatherlink.com 1.10,2013-07-26 07:08:00,
2013-07-26 02:23:00,71.5,71.0,29.96,ESE,118,0.0,0.0,98,0.00,,,0.00,weatherlink.com 1.10,2013-07-26 07:23:00,
2013-07-26 02:38:00,71.4,71.0,29.96,ESE,118,0.0,0.0,98,0.00,,,0.00,weatherlink.com 1.10,2013-07-26 07:38:00,
2013-07-26 02:53:00,71.3,71.0,29.96,ESE,118,0.0,0.0,98,0.00,,,0.00,weatherlink.com 1.10,2013-07-26 07:53:00,
2013-07-26 03:08:00,71.2,71.0,29.96,ESE,118,0.0,0.0,98,0.00,,,0.00,weatherlink.com 1.10,2013-07-26 08:08:00,
2013-07-26 03:23:00,71.2,71.0,29.96,East,91,0.0,0.0,98,0.00,,,0.00,weatherlink.com 1.10,2013-07-26 08:23:00,
2013-07-26 03:38:00,70.9,70.0,29.95,East,91,0.0,0.0,98,0.00,,,0.00,weatherlink.com 1.10,2013-07-26 08:38:00,
2013-07-26 03:53:00,70.7,70.0,29.96,East,91,0.0,0.0,98,0.00,,,0.00,weatherlink.com 1.10,2013-07-26 08:53:00,
2013-07-26 04:08:00,70.5,70.0,29.96,East,91,0.0,0.0,98,0.00,,,0.00,weatherlink.com 1.10,2013-07-26 09:08:00,
2013-07-26 04:23:00,70.3,70.0,29.96,East,91,0.0,0.0,98,0.00,,,0.00,weatherlink.com 1.10,2013-07-26 09:23:00,
2013-07-26 04:39:00,70.1,70.0,29.96,East,91,0.0,0.0,98,0.00,,,0.00,weatherlink.com 1.10,2013-07-26 09:39:00,
2013-07-26 04:54:00,69.8,69.0,29.97,East,91,0.0,0.0,98,0.00,,,0.00,weatherlink.com 1.10,2013-07-26 09:54:00,
2013-07-26 05:09:00,69.8,69.0,29.97,East,91,0.0,0.0,98,0.00,,,0.00,weatherlink.com 1.10,2013-07-26 10:09:00,
2013-07-26 05:24:00,69.7,69.0,29.98,East,92,0.0,0.0,98,0.00,,,0.00,weatherlink.com 1.10,2013-07-26 10:24:00,
2013-07-26 05:39:00,69.0,69.0,29.98,East,91,0.0,0.0,98,0.00,,,0.00,weatherlink.com 1.10,2013-07-26 10:39:00,
2013-07-26 05:54:00,69.3,69.0,29.98,ENE,60,0.0,0.0,98,0.00,,,0.00,weatherlink.com 1.10,2013-07-26 10:54:00,
2013-07-26 06:09:00,69.1,69.0,29.98,ENE,60,0.0,0.0,98,0.00,,,0.00,weatherlink.com 1.10,2013-07-26 11:09:00,
2013-07-26 06:24:00,69.1,69.0,29.99,ENE,60,0.0,0.0,98,0.00,,,0.00,weatherlink.com 1.10,2013-07-26 11:24:00,
2013-07-26 06:39:00,69.5,69.0,29.99,ENE,59,0.0,0.0,98,0.00,,,0.00,weatherlink.com 1.10,2013-07-26 11:39:00,
2013-07-26 06:54:00,71.0,70.0,29.99,ENE,59,0.0,0.0,98,0.00,,,0.00,weatherlink.com 1.10,2013-07-26 11:54:00,
2013-07-26 07:09:00,72.7,72.0,30.00,NE,34,0.0,0.0,98,0.00,,,0.00,weatherlink.com 1.10,2013-07-26 12:09:00,
2013-07-26 07:24:00,74.0,73.0,29.99,NE,34,0.0,0.0,98,0.00,,,0.00,weatherlink.com 1.10,2013-07-26 12:24:00,
2013-07-26 07:39:00,75.8,74.0,29.99,NE,34,0.0,0.0,95,0.00,,,0.00,weatherlink.com 1.10,2013-07-26 12:39:00,
2013-07-26 07:54:00,77.8,75.0,30.00,NE,34,0.0,0.0,90,0.00,,,0.00,weatherlink.com 1.10,2013-07-26 12:54:00,
2013-07-26 08:09:00,81.0,75.0,30.00,ENE,65,0.0,1.0,82,0.00,,,0.00,weatherlink.com 1.10,2013-07-26 13:09:00,
2013-07-26 08:24:00,80.1,74.0,30.00,NW,316,0.0,1.0,81,0.00,,,0.00,weatherlink.com 1.10,2013-07-26 13:24:00,
2013-07-26 08:39:00,81.8,74.0,30.00,East,92,0.0,0.0,78,0.00,,,0.00,weatherlink.com 1.10,2013-07-26 13:39:00,
2013-07-26 08:54:00,84.3,75.0,30.00,NNW,330,0.0,0.0,73,0.00,,,0.00,weatherlink.com 1.10,2013-07-26 13:54:00,
2013-07-26 09:09:00,85.8,76.0,30.00,SSW,205,0.0,1.0,73,0.00,,,0.00,weatherlink.com 1.10,2013-07-26 14:09:00,
2013-07-26 09:24:00,85.8,75.0,30.01,East,98,0.0,2.0,71,0.00,,,0.00,weatherlink.com 1.10,2013-07-26 14:24:00,
2013-07-26 09:39:00,86.7,76.0,30.01,West,259,0.0,2.0,71,0.00,,,0.00,weatherlink.com 1.10,2013-07-26 14:39:00,
2013-07-26 09:54:00,87.6,74.0,30.01,SSW,205,4.0,7.0,64,0.00,,,0.00,weatherlink.com 1.10,2013-07-26 14:54:00,
2013-07-26 10:09:00,88.4,75.0,30.01,SE,129,0.0,4.0,64,0.00,,,0.00,weatherlink.com 1.10,2013-07-26 15:09:00,
2013-07-26 10:24:00,87.5,74.0,30.01,NE,50,1.0,6.0,65,0.00,,,0.00,weatherlink.com 1.10,2013-07-26 15:24:00,
2013-07-26 10:39:00,87.7,75.0,30.01,SE,129,0.0,7.0,66,0.00,,,0.00,weatherlink.com 1.10,2013-07-26 15:39:00,
2013-07-26 10:54:00,87.7,75.0,30.01,SW,218,0.0,4.0,66,0.00,,,0.00,weatherlink.com 1.10,2013-07-26 15:54:00,
2013-07-26 11:10:00,86.9,74.0,30.01,East,86,0.0,4.0,65,0.00,,,0.00,weatherlink.com 1.10,2013-07-26 16:10:00,
2013-07-26 11:24:00,88.2,74.0,30.01,SSE,156,1.0,3.0,62,0.00,,,0.00,weatherlink.com 1.10,2013-07-26 16:24:00,
2013-07-26 11:39:00,88.6,74.0,30.01,SSW,194,0.0,5.0,62,0.00,,,0.00,weatherlink.com 1.10,2013-07-26 16:39:00,
2013-07-26 11:55:00,90.1,73.0,30.01,ENE,68,2.0,4.0,58,0.00,,,0.00,weatherlink.com 1.10,2013-07-26 16:55:00,
2013-07-26 12:25:00,89.9,73.0,30.00,West,270,0.0,5.0,58,0.00,,,0.00,weatherlink.com 1.10,2013-07-26 17:25:00,
2013-07-26 12:40:00,88.7,74.0,30.00,WNW,290,2.0,5.0,61,0.00,,,0.00,weatherlink.com 1.10,2013-07-26 17:40:00,
2013-07-26 12:55:00,89.6,73.0,30.00,North,352,2.0,5.0,58,0.00,,,0.00,weatherlink.com 1.10,2013-07-26 17:55:00,
2013-07-26 13:10:00,90.1,74.0,29.99,SE,136,0.0,4.0,60,0.00,,,0.00,weatherlink.com 1.10,2013-07-26 18:10:00,
2013-07-26 13:25:00,91.2,73.0,29.99,NNE,33,0.0,3.0,55,0.00,,,0.00,weatherlink.com 1.10,2013-07-26 18:25:00,
2013-07-26 13:40:00,90.4,75.0,29.98,NNE,22,1.0,5.0,61,0.00,,,0.00,weatherlink.com 1.10,2013-07-26 18:40:00,
2013-07-26 13:55:00,91.3,74.0,29.98,NW,314,0.0,3.0,58,0.00,,,0.00,weatherlink.com 1.10,2013-07-26 18:55:00,
2013-07-26 14:10:00,90.8,74.0,29.97,NNW,333,1.0,7.0,58,0.00,,,0.00,weatherlink.com 1.10,2013-07-26 19:10:00,
2013-07-26 14:25:00,89.7,72.0,29.97,NNW,337,2.0,5.0,56,0.00,,,0.00,weatherlink.com 1.10,2013-07-26 19:25:00,
2013-07-26 14:40:00,90.1,73.0,29.96,WNW,293,1.0,6.0,57,0.00,,,0.00,weatherlink.com 1.10,2013-07-26 19:40:00,
2013-07-26 14:55:00,91.1,72.0,29.96,SSW,211,0.0,4.0,53,0.00,,,0.00,weatherlink.com 1.10,2013-07-26 19:55:00,
2013-07-26 15:10:00,91.9,72.0,29.96,NNW,336,1.0,3.0,52,0.00,,,0.00,weatherlink.com 1.10,2013-07-26 20:10:00,
2013-07-26 15:25:00,92.2,76.0,29.96,ENE,75,0.0,5.0,59,0.00,,,0.00,weatherlink.com 1.10,2013-07-26 20:25:00,
2013-07-26 15:40:00,91.1,72.0,29.95,North,354,3.0,4.0,53,0.00,,,0.00,weatherlink.com 1.10,2013-07-26 20:40:00,
2013-07-26 15:55:00,91.8,74.0,29.95,NNW,336,1.0,3.0,57,0.00,,,0.00,weatherlink.com 1.10,2013-07-26 20:55:00,
2013-07-26 16:10:00,92.0,73.0,29.94,WSW,246,1.0,2.0,54,0.00,,,0.00,weatherlink.com 1.10,2013-07-26 21:10:00,
2013-07-26 16:25:00,90.0,74.0,29.95,NE,46,0.0,3.0,60,0.00,,,0.00,weatherlink.com 1.10,2013-07-26 21:25:00,
2013-07-26 16:40:00,91.5,74.0,29.94,WSW,256,0.0,2.0,57,0.00,,,0.00,weatherlink.com 1.10,2013-07-26 21:40:00,
2013-07-26 16:55:00,90.8,76.0,29.94,North,6,0.0,1.0,63,0.00,,,0.00,weatherlink.com 1.10,2013-07-26 21:55:00,
2013-07-26 17:10:00,90.4,74.0,29.94,SW,225,0.0,1.0,58,0.00,,,0.00,weatherlink.com 1.10,2013-07-26 22:10:00,
2013-07-26 17:25:00,90.5,78.0,29.94,NW,319,0.0,1.0,66,0.00,,,0.00,weatherlink.com 1.10,2013-07-26 22:25:00,
2013-07-26 17:40:00,90.6,75.0,29.94,South,185,0.0,2.0,61,0.00,,,0.00,weatherlink.com 1.10,2013-07-26 22:40:00,
2013-07-26 17:55:00,89.7,74.0,29.94,NNW,333,0.0,1.0,61,0.00,,,0.00,weatherlink.com 1.10,2013-07-26 22:55:00,
2013-07-26 18:10:00,88.3,77.0,29.94,West,276,0.0,0.0,69,0.00,,,0.00,weatherlink.com 1.10,2013-07-26 23:10:00,
2013-07-26 18:25:00,85.3,77.0,29.94,West,276,0.0,0.0,76,0.00,,,0.00,weatherlink.com 1.10,2013-07-26 23:25:00,
2013-07-26 18:40:00,83.3,77.0,29.94,West,276,0.0,0.0,81,0.00,,,0.00,weatherlink.com 1.10,2013-07-26 23:40:00,
2013-07-26 18:55:00,82.0,77.0,29.94,West,277,0.0,0.0,84,0.00,,,0.00,weatherlink.com 1.10,2013-07-26 23:55:00,
2013-07-26 19:10:00,81.0,76.0,29.94,West,278,0.0,0.0,85,0.00,,,0.00,weatherlink.com 1.10,2013-07-27 00:10:00,
2013-07-26 19:25:00,79.7,76.0,29.93,West,277,0.0,0.0,88,0.00,,,0.00,weatherlink.com 1.10,2013-07-27 00:25:00,
2013-07-26 19:40:00,78.5,75.0,29.93,NNE,19,0.0,0.0,89,0.00,,,0.00,weatherlink.com 1.10,2013-07-27 00:40:00,
2013-07-26 19:55:00,77.2,74.0,29.93,NNE,18,0.0,0.0,90,0.00,,,0.00,weatherlink.com 1.10,2013-07-27 00:55:00,
2013-07-26 20:10:00,76.3,74.0,29.93,NNE,20,0.0,0.0,93,0.00,,,0.00,weatherlink.com 1.10,2013-07-27 01:10:00,
2013-07-26 20:25:00,75.6,74.0,29.93,NNE,20,0.0,0.0,95,0.00,,,0.00,weatherlink.com 1.10,2013-07-27 01:25:00,
2013-07-26 20:40:00,75.1,74.0,29.94,NNE,20,0.0,0.0,95,0.00,,,0.00,weatherlink.com 1.10,2013-07-27 01:40:00,
2013-07-26 20:55:00,74.8,74.0,29.94,NNE,20,0.0,0.0,96,0.00,,,0.00,weatherlink.com 1.10,2013-07-27 01:55:00,
2013-07-26 21:10:00,74.7,74.0,29.95,NNE,23,0.0,0.0,97,0.00,,,0.00,weatherlink.com 1.10,2013-07-27 02:10:00,
2013-07-26 21:25:00,74.4,74.0,29.95,NNE,23,0.0,0.0,97,0.00,,,0.00,weatherlink.com 1.10,2013-07-27 02:25:00,
2013-07-26 21:40:00,74.3,73.0,29.95,NE,37,0.0,0.0,97,0.00,,,0.00,weatherlink.com 1.10,2013-07-27 02:40:00,
2013-07-26 22:10:00,73.6,73.0,29.95,NE,37,0.0,0.0,97,0.00,,,0.00,weatherlink.com 1.10,2013-07-27 03:10:00,
2013-07-26 22:25:00,73.2,72.0,29.95,NE,34,0.0,0.0,97,0.00,,,0.00,weatherlink.com 1.10,2013-07-27 03:25:00,
2013-07-26 22:40:00,72.8,72.0,29.95,NE,34,0.0,0.0,97,0.00,,,0.00,weatherlink.com 1.10,2013-07-27 03:40:00,
2013-07-26 22:55:00,72.7,72.0,29.95,NE,38,0.0,0.0,98,0.00,,,0.00,weatherlink.com 1.10,2013-07-27 03:55:00,
2013-07-26 23:10:00,72.6,72.0,29.95,NE,39,0.0,0.0,98,0.00,,,0.00,weatherlink.com 1.10,2013-07-27 04:10:00,
2013-07-26 23:25:00,72.2,72.0,29.94,NE,39,0.0,0.0,98,0.00,,,0.00,weatherlink.com 1.10,2013-07-27 04:25:00,
2013-07-26 23:40:00,72.3,72.0,29.94,NE,38,0.0,0.0,98,0.00,,,0.00,weatherlink.com 1.10,2013-07-27 04:40:00,
2013-07-26 23:55:00,72.7,72.0,29.94,East,82,0.0,1.0,98,0.00,,,0.00,weatherlink.com 1.10,2013-07-27 04:55:00,